N750XC KCLE-KTEB

Flight info

Callsign N750XC
Flight time N/A
Altitude 45000
Route PFLYD1 JASEE JHW Q476 MAGIO LVZ LVZ5
Aircraft C750/M-SBDE3FGHRWXY/S

Departure

Time 2026-05-04 23:36
Airport Cleveland Hopkins International Airport (KCLE)

Arrival

Time N/A
Airport Teterboro Airport (KTEB)
Time Latitude Longitude Altitude Speed Heading
2026-05-04 23:16 41.40132 -81.85430 783 ft 0 kts 272°
2026-05-04 23:18 41.40132 -81.85429 783 ft 0 kts 272°
2026-05-04 23:25 41.40132 -81.85428 785 ft 0 kts 272°
2026-05-04 23:30 41.40181 -81.85440 785 ft 15 kts
2026-05-04 23:30 41.40294 -81.85434 791 ft 17 kts
2026-05-04 23:31 41.40416 -81.85465 791 ft 21 kts 342°
2026-05-04 23:31 41.40545 -81.85517 791 ft 16 kts
2026-05-04 23:31 41.40624 -81.85413 791 ft 17 kts 50°
2026-05-04 23:31 41.40704 -81.85287 791 ft 18 kts 50°
2026-05-04 23:32 41.40788 -81.85155 791 ft 19 kts 50°
2026-05-04 23:32 41.40887 -81.84998 791 ft 25 kts 50°
2026-05-04 23:32 41.41012 -81.84800 792 ft 30 kts 50°
2026-05-04 23:32 41.41141 -81.84596 792 ft 28 kts 50°
2026-05-04 23:33 41.41263 -81.84403 791 ft 27 kts 50°
2026-05-04 23:33 41.41370 -81.84234 791 ft 15 kts 50°
2026-05-04 23:33 41.41410 -81.84171 791 ft 0 kts 49°
2026-05-04 23:34 41.41411 -81.84170 791 ft 0 kts 49°
2026-05-04 23:34 41.41430 -81.84148 791 ft 4 kts 27°
2026-05-04 23:34 41.41456 -81.84144 791 ft 1 kts 354°
2026-05-04 23:34 41.41491 -81.84176 790 ft 12 kts 319°
2026-05-04 23:35 41.41496 -81.84264 792 ft 10 kts 230°
2026-05-04 23:35 41.41475 -81.84297 791 ft 0 kts 230°
2026-05-04 23:35 41.41451 -81.84334 791 ft 20 kts 230°
2026-05-04 23:35 41.41134 -81.84833 794 ft 121 kts 230°
2026-05-04 23:36 41.40551 -81.85822 1228 ft 138 kts 228°
2026-05-04 23:36 41.39977 -81.86847 1994 ft 143 kts 227°
2026-05-04 23:36 41.39244 -81.87898 2472 ft 169 kts 231°
2026-05-04 23:36 41.38811 -81.89521 2961 ft 207 kts 259°
2026-05-04 23:37 41.38969 -81.91580 3535 ft 237 kts 274°
2026-05-04 23:37 41.39283 -81.93733 4770 ft 233 kts 275°
2026-05-04 23:37 41.39575 -81.95869 5858 ft 236 kts 275°
2026-05-04 23:37 41.39858 -81.98074 6007 ft 246 kts 275°
2026-05-04 23:38 41.40150 -82.00283 5995 ft 242 kts 275°
2026-05-04 23:38 41.40435 -82.02497 5990 ft 242 kts 275°
2026-05-04 23:38 41.40714 -82.04717 5998 ft 243 kts 275°
2026-05-04 23:38 41.40996 -82.06936 5997 ft 243 kts 275°
2026-05-04 23:39 41.41280 -82.09154 6005 ft 242 kts 275°
2026-05-04 23:39 41.41888 -82.11317 6450 ft 261 kts 295°
2026-05-04 23:39 41.43018 -82.13121 7992 ft 254 kts 310°
2026-05-04 23:39 41.44581 -82.14353 9123 ft 272 kts 331°
2026-05-04 23:40 41.46496 -82.14777 10155 ft 290 kts 352°
2026-05-04 23:40 41.48578 -82.14162 10499 ft 333 kts 18°
2026-05-04 23:40 41.50524 -82.12161 10549 ft 375 kts 41°
2026-05-04 23:40 41.52237 -82.09435 11144 ft 386 kts 49°
2026-05-04 23:41 41.53868 -82.06592 11978 ft 387 kts 48°
2026-05-04 23:41 41.55611 -82.03817 12690 ft 391 kts 45°
2026-05-04 23:41 41.57425 -82.01090 13438 ft 395 kts 45°
2026-05-04 23:41 41.59217 -81.98271 14093 ft 399 kts 47°
2026-05-04 23:42 41.60937 -81.95330 14712 ft 405 kts 53°
2026-05-04 23:42 41.62129 -81.91878 15333 ft 412 kts 71°
2026-05-04 23:42 41.62637 -81.88148 16018 ft 415 kts 85°
2026-05-04 23:42 41.62849 -81.84293 16722 ft 417 kts 86°
2026-05-04 23:43 41.63056 -81.80411 17449 ft 420 kts 85°
2026-05-04 23:43 41.63285 -81.76500 18155 ft 424 kts 85°
2026-05-04 23:43 41.63520 -81.72504 18801 ft 428 kts 85°
2026-05-04 23:43 41.63738 -81.68571 19457 ft 431 kts 85°
2026-05-04 23:44 41.63957 -81.64560 20124 ft 435 kts 85°
2026-05-04 23:44 41.64184 -81.60517 20814 ft 438 kts 85°
2026-05-04 23:44 41.64412 -81.56434 21482 ft 442 kts 85°
2026-05-04 23:44 41.64767 -81.52348 22103 ft 446 kts 77°
2026-05-04 23:45 41.65625 -81.48356 22722 ft 447 kts 71°
2026-05-04 23:45 41.66558 -81.44373 23358 ft 451 kts 71°
2026-05-04 23:45 41.67476 -81.40344 23829 ft 457 kts 72°
2026-05-04 23:45 41.68406 -81.36258 24337 ft 460 kts 71°
2026-05-04 23:46 41.69350 -81.32157 24877 ft 463 kts 71°
2026-05-04 23:46 41.70303 -81.28024 25404 ft 467 kts 71°
2026-05-04 23:46 41.71256 -81.23849 26001 ft 469 kts 71°
2026-05-04 23:46 41.72208 -81.19662 26524 ft 472 kts 71°